Location: Central Falls
(41.8900°N, 71.3929°W)
Time: 04:38:53
(UTC+00:00)

Tiros 1 - Pass Details

Date: 08 December 2023
Orbit: 625 x 658 km, 48.4° (Epoch: 01 March)

Event Time Altitude Azimuth Distance (km) Brightness Sun altitude
Rises 14:04:17 0° 294° (WNW) 2,987 10.0 16.3°
Reaches altitude 10° 14:06:44 10° 288° (WNW) 2,071 9.3 16.6°
Maximum altitude 14:11:12 40° 219° (SW) 962 8.4 17.1°
Drops below altitude 10° 14:15:37 10° 150° (SSE) 2,047 12.3 17.5°
Sets 14:18:02 0° 143° (SE) 2,949 12.3 17.8°
